Погода в Великой Ольшанке

Украина / Киевская область     50°04′05″N   30°26′03″E
темп.,
°C
ветер,
м/с
пор.,
м/с
влажн.,
%
обл.,
%
осадки,
мм/ч
давл.,
гПа
погр.,
м
18 мая, ср
ср1800:00+7ссз41060100 0.0 1014204
03:00+4сз487016 0.0 1015148
06:00+3ссз612855 0.0 1016396
09:00+6ссз81077100 0.0 1017954
12:00+6ссз7990100 0.1 1019877
15:00+7ссз61293100 1.0 10191086
18:00+11с7117615 0.6 10201273
21:00+8ссз613785 0.6 1022579
19 мая, чт
чт1900:00+7ссз49905 0.1 1023237
03:00+4сз411925 0.1 1024207
06:00+4сз411915 0.0 1025212
09:00+12ссз69676 0.0 1025551
12:00+16сз675343 0.0 10251462
15:00+17сз684753 0.0 10231778
18:00+17зсз5956100 0.0 1022847
21:00+12зсз467137 0.0 102396
20 мая, пт
пт2000:00+11зсз36695 0.0 1023120
03:00+8зсз368013 0.0 102379
06:00+8з368228 0.0 1023103
09:00+14з4665100 0.0 1022392
12:00+18з4652100 0.0 10211051
15:00+20з6852100 0.0 10181283
18:00+20зюз6106523 0.0 10161313
21:00+16зюз5137412 0.0 1014361
21 мая, сб
сб2100:00+14зюз61582100 0.0 1011408
03:00+14з61494100 0.0 1009576
06:00+13зсз81380100 0.1 10091060
09:00+12сз81283100 0.1 1010936
12:00+12с7980100 0.1 1012892
15:00+13с5668100 0.1 10131203
18:00+13св3368100 0.0 1014963
21:00+10юв468121 0.0 1013120
22 мая, вс
вс2200:00+9ююв61189100 0.8 1011438
03:00+8юв51096100 4.7 1010452
06:00+8ююв5998100 1.8 1009429
09:00+10ююз2495100 2.1 1008312
12:00+13с2384100 0.9 1007544
15:00+11св2392100 3.4 1008324
18:00+9в459598 0.3 1009325
21:00+7в4795100 0.4 1011331